COSMOS 1275 DEB, 42187

Orbit data source: Space-Track

COSMOS 1275 DEB, 42187 is space debris in LEO originally from a launch on Thu, 04 Jun 1981 UTC launched from the Plesetsk Missile And Space Complex (PKMTR). Debris objects in space refer to the collection of defunct objects orbiting the Earth. Examples of debris include non-operational satellites, rocket bodies, and fragments generated from explosions, collisions, or faulty payload assembly.

Loading next visibility...
Identifier
42187, 1981-053TB
Orbit
LEO
Country
Flag of CISCIS
Related business
Manufacturer
Unknown
Mission
Spacecraft
Bus & Motor
Unknown
Mass
Unknown
Launch date (UTC)
1981-06-04 (45 years ago)
Launch vehicle
Unknown
Launch site
Plesetsk Missile And Space Complex (PKMTR)
Object type
Payload
Rocket body
Debris
Shape & HBR
Unknown shape, 0.1 m
Radar Cross Section
Medium (>0.1 m² and <1 m²)

Expand to show TLE details & history
Last TLE update: 2 weeks ago

TLE from 2 weeks ago
0 COSMOS 1275 DEB
1 42187U 81053TB  26158.77210085  .00002335  00000-0  14127-2 0  9991
2 42187  82.9656 168.2090 0058187  31.7298 328.7360 14.05257462638658
Epoch: 2026-06-07T18:31Z
TLE epoch observation values (Epoch: 2026-06-07T18:31:49.513Z)
Latitude
Longitude
-5.91582°
Altitude
842.57 km
Speed
7.45 km/s
True Right ascension
11h 12m 50s
True Declination
0° 00' 00"
Sunlit
Object was in daylight at epoch
Visualization orbit readout
Latitude
Unknown
Longitude
Unknown
Altitude
Unknown
Speed
Unknown
Apparent Right ascension
Unknown
Apparent Declination
Unknown
Sunlit
N/A
Visualization observer readout
Local Sidereal Time
21:54:15
Azimuth
Unknown
Elevation
Unknown
Doppler factor
Unknown
Orbital elements
Apogee altitude
914.943 km
Perigee altitude
830.562 km
Semi-major axis
7,250.889 km
Eccentricity
0.00582
Inclination
82.9656°
RAAN
168.209°
Arg. of periapsis
31.7298°
True anomaly
328.38779°
Mean anomaly
328.736°
Eccentric anomaly
328.56211°
Mean motion
3.51525 °/min
Orbital period
102.41 mins
BSTAR
0.0014127
Loading maneuver chart data...
Computing Atmospheric mass density...

Documentation

Showing up to 5 results
|